Soldotna, AK

5:24 PM AKDT on April 19, 2018 (GMT -0800)
Soldotna

Weather History for PASX - June, 2012

Change the Weather History Date:

Sunday, June 17, 2012

  Actual Average Record
Temperature  
Mean Temperature 55 °F -  
Max Temperature 71 °F 58 °F 78 °F (2013)
Min Temperature 39 °F 42 °F 31 °F (1985)
Degree Days  
Heating Degree Days 10    
Growing Degree Days 5 (Base 50)    
Moisture  
Dew Point 43 °F    
Average Humidity 58    
Maximum Humidity 87    
Minimum Humidity 35    
Precipitation  
Precipitation 0.00 in - - ()
Sea Level Pressure  
Sea Level Pressure 29.65 in    
Wind  
Wind Speed 5 mph (West)    
Max Wind Speed 15 mph    
Max Gust Speed 16 mph    
Visibility 10 miles    
Events      
Averages and records for this station are not official NWS values.
T = Trace of Precipitation, MM = Missing Value Source: NWS Daily Summary

Daily Weather History Graph

Daily Weather History Graph

Search for Another Location

Airport or City:

Trip Planner

Search our weather history database for the weather conditions in past years. The results will help you decide how hot, cold, wet, or windy it might be!

Date:

Astronomy

Jun. 17, 2012 Rise Set
Actual Time 4:34 AM AKDT 11:36 PM AKDT
Civil Twilight 2:27 AM AKDT 1:44 AM AKDT
Nautical Twilight Sun does not set Sun does not set
Astronomical Twilight Sun does not set Sun does not set
Moon 3:33 AM AKDT (6/17) 9:55 PM AKDT (6/17)
Length of Visible Light 23h 16m
Length of Day
19h 02m
Waning Crescent, 3% of the Moon is Illuminated
Jun 17
Waning Crescent
Jun 19
New
Jun 26
First Quarter
Jul 3
Full
Jul 10
Last Quarter

Hourly Weather History & Observations

Time (AKDT) Temp. Windchill Dew Point Humidity Pressure Visibility Wind Dir Wind Speed Gust Speed Precip Events Conditions
12:16 AM 51.8 °F - 42.8 °F 71% 29.45 in 10.0 mi Calm Calm - N/A   Mostly Cloudy
12:36 AM 50.0 °F - 42.8 °F 76% 29.45 in 10.0 mi Calm Calm - N/A   Partly Cloudy
12:56 AM 50.0 °F - 42.8 °F 76% 29.45 in 10.0 mi ENE 3.5 mph - N/A   Partly Cloudy
1:16 AM 48.2 °F - 42.8 °F 82% 29.46 in 10.0 mi Calm Calm - N/A   Partly Cloudy
1:36 AM 48.2 °F - 42.8 °F 82% 29.47 in 10.0 mi Calm Calm - N/A   Partly Cloudy
1:56 AM 46.4 °F - 41.0 °F 81% 29.48 in 10.0 mi Calm Calm - N/A   Scattered Clouds
2:16 AM 44.6 °F - 39.2 °F 81% 29.48 in 10.0 mi Calm Calm - N/A   Partly Cloudy
2:36 AM 44.6 °F 43.1 °F 39.2 °F 81% 29.48 in 10.0 mi East 3.5 mph - N/A   Clear
2:56 AM 44.6 °F 43.1 °F 39.2 °F 81% 29.48 in 10.0 mi ENE 3.5 mph - N/A   Partly Cloudy
3:16 AM 44.6 °F - 39.2 °F 81% 29.49 in 10.0 mi Calm Calm - N/A   Clear
3:36 AM 44.6 °F 43.1 °F 39.2 °F 81% 29.50 in 10.0 mi East 3.5 mph - N/A   Clear
3:56 AM 41.0 °F 39.0 °F 35.6 °F 81% 29.50 in 10.0 mi ENE 3.5 mph - N/A   Clear
4:16 AM 42.8 °F 41.1 °F 37.4 °F 81% 29.51 in 10.0 mi NE 3.5 mph - N/A   Clear
4:36 AM 39.2 °F 35.0 °F 35.6 °F 87% 29.51 in 10.0 mi East 5.8 mph - N/A   Clear
4:56 AM 42.8 °F 41.1 °F 37.4 °F 81% 29.52 in 10.0 mi NE 3.5 mph - N/A   Clear
5:16 AM 42.8 °F 41.1 °F 37.4 °F 81% 29.53 in 10.0 mi East 3.5 mph - N/A   Clear
5:36 AM 41.0 °F 39.0 °F 37.4 °F 87% 29.54 in 10.0 mi ENE 3.5 mph - N/A   Clear
5:56 AM 42.8 °F - 37.4 °F 81% 29.55 in 10.0 mi Calm Calm - N/A   Clear
6:16 AM 42.8 °F - 37.4 °F 81% 29.56 in 10.0 mi Calm Calm - N/A   Clear
6:36 AM 44.6 °F - 39.2 °F 81% 29.57 in 10.0 mi Calm Calm - N/A   Clear
6:56 AM 46.4 °F 43.5 °F 39.2 °F 76% 29.58 in 10.0 mi East 5.8 mph - N/A   Clear
7:16 AM 46.4 °F - 39.2 °F 76% 29.59 in 10.0 mi Calm Calm - N/A   Clear
7:36 AM 50.0 °F - 41.0 °F 71% 29.59 in 10.0 mi Calm Calm - N/A   Clear
7:56 AM 51.8 °F - 42.8 °F 71% 29.60 in 10.0 mi Calm Calm - N/A   Clear
8:16 AM 53.6 °F - 42.8 °F 67% 29.60 in 10.0 mi Calm Calm - N/A   Clear
8:36 AM 55.4 °F - 42.8 °F 63% 29.61 in 10.0 mi Calm Calm - N/A   Clear
8:56 AM 55.4 °F - 44.6 °F 67% 29.62 in 10.0 mi Calm Calm - N/A   Clear
9:16 AM 59.0 °F - 42.8 °F 55% 29.62 in 10.0 mi WSW 3.5 mph - N/A   Clear
9:36 AM 59.0 °F - 42.8 °F 55% 29.63 in 10.0 mi West 8.1 mph - N/A   Clear
9:56 AM 60.8 °F - 42.8 °F 52% 29.63 in 10.0 mi West 5.8 mph - N/A   Clear
10:16 AM 60.8 °F - 44.6 °F 55% 29.63 in 10.0 mi WSW 9.2 mph - N/A   Clear
10:36 AM 60.8 °F - 46.4 °F 59% 29.64 in 10.0 mi WNW 8.1 mph - N/A   Clear
10:56 AM 60.8 °F - 44.6 °F 55% 29.65 in 10.0 mi WNW 12.7 mph - N/A   Clear
11:16 AM 62.6 °F - 46.4 °F 55% 29.65 in 10.0 mi WNW 9.2 mph - N/A   Clear
11:36 AM 62.6 °F - 44.6 °F 52% 29.66 in 10.0 mi WNW 11.5 mph - N/A   Clear
11:56 AM 62.6 °F - 46.4 °F 55% 29.67 in 10.0 mi West 9.2 mph - N/A   Clear
12:16 PM 62.6 °F - 46.4 °F 55% 29.68 in 10.0 mi West 9.2 mph - N/A   Clear
12:36 PM 62.6 °F - 44.6 °F 52% 29.68 in 10.0 mi WNW 10.4 mph - N/A   Partly Cloudy
12:56 PM 62.6 °F - 46.4 °F 55% 29.68 in 10.0 mi WNW 8.1 mph - N/A   Mostly Cloudy
1:16 PM 64.4 °F - 46.4 °F 52% 29.69 in 10.0 mi NW 9.2 mph - N/A   Overcast
1:36 PM 62.6 °F - 46.4 °F 55% 29.69 in 10.0 mi WNW 8.1 mph - N/A   Overcast
1:56 PM 64.4 °F - 46.4 °F 52% 29.70 in 10.0 mi WNW 10.4 mph - N/A   Mostly Cloudy
2:16 PM 64.4 °F - 46.4 °F 52% 29.70 in 10.0 mi WNW 9.2 mph - N/A   Partly Cloudy
2:36 PM 66.2 °F - 44.6 °F 46% 29.70 in 10.0 mi WNW 10.4 mph - N/A   Clear
2:56 PM 66.2 °F - 46.4 °F 49% 29.70 in 10.0 mi WNW 10.4 mph - N/A   Clear
3:16 PM 68.0 °F - 46.4 °F 46% 29.71 in 10.0 mi WNW 11.5 mph - N/A   Clear
3:36 PM 68.0 °F - 44.6 °F 43% 29.70 in 10.0 mi West 12.7 mph - N/A   Clear
3:56 PM 69.8 °F - 44.6 °F 40% 29.71 in 10.0 mi West 10.4 mph - N/A   Clear
4:16 PM 69.8 °F - 42.8 °F 38% 29.72 in 10.0 mi WNW 12.7 mph 16.1 mph N/A   Clear
4:36 PM 69.8 °F - 44.6 °F 40% 29.72 in 10.0 mi WNW 13.8 mph - N/A   Clear
4:56 PM 69.8 °F - 44.6 °F 40% 29.73 in 10.0 mi West 13.8 mph - N/A   Clear
5:16 PM 69.8 °F - 42.8 °F 38% 29.73 in 10.0 mi West 15.0 mph - N/A   Clear
5:36 PM 69.8 °F - 42.8 °F 38% 29.73 in 10.0 mi WNW 12.7 mph - N/A   Clear
5:56 PM 69.8 °F - 42.8 °F 38% 29.73 in 10.0 mi West 11.5 mph - N/A   Scattered Clouds
6:16 PM 69.8 °F - 42.8 °F 38% 29.73 in 10.0 mi West 12.7 mph - N/A   Partly Cloudy
6:36 PM 69.8 °F - 42.8 °F 38% 29.73 in 10.0 mi WNW 12.7 mph - N/A   Clear
6:56 PM 71.6 °F - 42.8 °F 35% 29.74 in 10.0 mi West 10.4 mph - N/A   Clear
7:16 PM 71.6 °F - 44.6 °F 38% 29.74 in 10.0 mi WSW 9.2 mph - N/A   Clear
7:36 PM 69.8 °F - 44.6 °F 40% 29.75 in 10.0 mi WSW 10.4 mph 16.1 mph N/A   Clear
7:56 PM 69.8 °F - 42.8 °F 38% 29.75 in 10.0 mi WSW 9.2 mph - N/A   Clear
8:16 PM 69.8 °F - 42.8 °F 38% 29.75 in 10.0 mi SW 8.1 mph - N/A   Clear
8:36 PM 68.0 °F - 42.8 °F 40% 29.76 in 10.0 mi WSW 9.2 mph - N/A   Clear
8:56 PM 68.0 °F - 42.8 °F 40% 29.76 in 10.0 mi South 6.9 mph - N/A   Clear
9:16 PM 66.2 °F - 42.8 °F 43% 29.77 in 10.0 mi WSW 6.9 mph - N/A   Clear
9:36 PM 66.2 °F - 42.8 °F 43% 29.77 in 10.0 mi SW 8.1 mph - N/A   Clear
9:56 PM 66.2 °F - 42.8 °F 43% 29.78 in 10.0 mi SSW 6.9 mph - N/A   Clear
10:16 PM 64.4 °F - 42.8 °F 45% 29.79 in 10.0 mi SW 5.8 mph - N/A   Clear
10:36 PM 62.6 °F - 41.0 °F 45% 29.80 in 10.0 mi SW 10.4 mph - N/A   Clear
10:56 PM 62.6 °F - 41.0 °F 45% 29.80 in 10.0 mi SW 11.5 mph 16.1 mph N/A   Clear
11:16 PM 60.8 °F - 41.0 °F 48% 29.80 in 10.0 mi SW 6.9 mph - N/A   Clear
11:36 PM 60.8 °F - 44.6 °F 55% 29.81 in 10.0 mi South 9.2 mph - N/A   Clear
11:56 PM 59.0 °F - 44.6 °F 59% 29.82 in 10.0 mi South 8.1 mph - N/A   Clear